Dutch Harbor, AK

11:23 PM AKDT on September 04, 2015 (GMT -0800)
Dutch Harbor | | Change Station
CLOSE
Current Station
Airport
Location: Dutch Harbor,
Elevation: 13 ft
Nearby Weather Stations

Elev 13 ft 53.90 °N, 166.54 °W | Updated 27 minutes ago

Overcast
Overcast
51 °F
Feels Like 51 °F
N
0
Wind Variable Wind from North

Today
High -- | Low -- °F
--% Chance of Precip.
Yesterday
High -- | Low -- °F
Precip. -- in
8:22 AM 9:50 PM
Waning Gibbous, 51% visible
Pressure 30.08 in
Visibility 10.0 miles
Clouds Few 1300 ft
Overcast 3700 ft
Dew Point 48 °F
Humidity 89%
Rainfall 0.02 in
Snow Depth Not available.
UV 0 out of 12
Pollen Not available.
Air Quality Not available.
Flu Activity Not available.
METAR PADU 050656Z AUTO 00000KT 10SM FEW013 OVC037 11/09 A3006 RMK AO2 RAE02 SLP186 P0000 T01060089
Pressure 30.08 in
Visibility 10.0 miles
Clouds Few 1300 ft
Overcast 3700 ft
Dew Point 48 °F
Humidity 89%
Rainfall 0.02 in
Snow Depth Not available.
UV 0 out of 12
Pollen Not available.
Air Quality Not available.
Flu Activity Not available.
METAR PADU 050656Z AUTO 00000KT 10SM FEW013 OVC037 11/09 A3006 RMK AO2 RAE02 SLP186 P0000 T01060089

10-Day Weather Forecast

×

Almanac

Astronomy

Sep. 04, 2015 Rise Set
Actual Time
Civil Twilight
Nautical Twilight
Astronomical Twilight
Moon
Length of Visible Light
Length of Day
Tomorrow will be .
, % of the Moon is Illuminated

Today's Extremes

State Highs State Lows

Community

WunderPhotos

Upload Photos

1,852,430 photos uploaded!

WunderBlogs® & News

Nearby

Air Quality

  Air Quality AQ Index Pollutant
Not available.

Snow Depth

Station Depth Elevation

Earthquake Activity

City Distance Mag. Time & Date
Minimum magnitude displayed is 2.5.

Coastal Water Temperatures

Place Temperature

Stations

Nearby Weather Stations

Station Location Temp. Windchill Dew Point Humidity Wind Precip. Elev Updated Type